星链-5814 (STARLINK-5814 )

导读

STARLINK-5814是美国太空探索技术公司星链计划的卫星之一,星链计划旨在构建全球卫星互联网星座。该卫星于2023年3月3日发射升空,截至当前已在轨运行约三年。它服务于星链低轨卫星通信网络,为全球用户提供高速互联网接入服务,推进了星链星座组网进程,也引发了关于轨道资源与天文观测影响的讨论。

基本信息
目录编号:
55777
目录名称:
STARLINK-5814
国际标识:
2023-028AN
轨道中心:
EARTH
卫星名称:
星链-5814
卫星全名:
星链-5814 (STARLINK-5814 )
卫星状态:
在轨 (已飞行1289 天)
发射日期:
2023-03-03 UTC
国别 :
美国 (US)
星等 :
--
该卫星已列入 空间交会检测服务 Space Conjunction Data Service (SCDS) ,当前飞行风险评估等级: 高风险
轨道信息
数据来源 国际轨道数据 AOE轨道数据
星历时间 2026-09-12T09:36:58+0800
14小时前
查看轨道信息
2026-09-10T23:00:00+0800
2天前
查看轨道信息
半长轴 6950.198km 6950.172km
偏心率 0.0002257 0.0002956
轨道倾角 70.000° 70.000°
近地点辐角 262.133° 262.068°
升交点赤经 114.417° 118.054°
平近点角 97.957° 240.319°
近地点 570.492km 569.98km
远地点 573.63km 574.09km
周期 96.107分钟 96.107分钟
每日圈数 14.983285 14.983369
详细信息
固有亮度:
5
最大亮度:
2.5
卫星平台:
Starlink v1.5
覆盖范围:
全球
运营商:
太空探索技术公司
运营商所在国:
美国
制造商(研发单位):
太空探索技术公司
制造商所在国:
美国
使用方式:
暂无
卫星简介
星链(Starlink)计划是由太空探索技术公司(SpaceX)提出的一个巨型低轨卫星互联网星座项目,计划在2019年至2024年间在太空搭建由约1.2万颗卫星组成的“星链”网络,其中1584颗将部署在地球上空550千米处的近地轨道,并从2020年开始工作。该卫星仍在工作。
2D轨道图
3D轨道图
轨道高度分析图
轨道倾角分析图
轨道综合分析图
查看轨道综合分析图
交会数据列表
事件ID 空间交会对象 最接近时刻(TCA) 交会距离 交会风险概率(CRP) 交会风险指数(CRI) 操作
CDM_260914-060103-976905-577725
RISING 2 (39769)
2026-09-14T
06:01:21+0000
0.426 km
远距离
2.824466E-4 高风险 0.84
与全量物体交会距离演化趋势
与全量物体交会风险概率演化趋势